COSMOS 2200

Satellite information

Favourite Embed

Satellite Type and Status

PAYLOADIN ORBIT

Key statistics

Satellite COSMOS 2200 at a glance.

Uptime

12211

Days in orbit

Revolutions

≈ 12.6

Per day

Orbit

LEO

Low Earth Orbit

Inclination

82.6

Latest

Satellite identification and parameters

Extended collection of information and parameters for COSMOS 2200.

Object identification

Identified? True

Debris? False

Object name: COSMOS 2200

International designator: 1992-042D

Object number (NORAD): 22037

Object ID (CCSDS): 22037

Country: COMMONWEALTH OF INDEPENDENT STATES (CIS)

Current information (Y/N): Y

RCS size: LARGE

Orbital parameters

Period: 113.985 minutes

Inclination: 82.5885 deg

SMA: 7787.406 km

Apoapsis: 1415.697 km

Periapsis: 1402.845 km

RAAN: 351.4121 deg

Eccentricy: 0.00082518

Argument of periapsis: 9.621 deg

Mean anomaly: 164.0586 deg

Mean motion: 12.63320546 rev/day

Mean motion (dot): 0.00000027 rev/day2

B* drag term: 0.000088561334 1/REarth

Two-line elements (TLE)

Creation date: Dec. 18, 2025, 2:19 a.m.

Reference frame: TEME

Reference center: EARTH

Epoch: Dec. 17, 2025, 5:45 p.m. UTC

TLE line 0: 0 COSMOS 2200

TLE line 1: 1 22037U 92042D 25351.73963414 .00000027 00000-0 88561-4 0 9995

TLE line 2: 2 22037 82.5885 351.4121 0008252 9.6210 164.0586 12.63320546541297

Live tracking on map

Real-time ground track for satellite COSMOS 2200.

In-orbit conjunctions

A list of the most updated potential collisions computed for object COSMOS 2200.

Target Orbit TCA Probability of collision Miss distance Type
COSMOS 1691 LEO 2025-10-13 13:59:52 0.0002653371 140.0 (m) PAYLOAD

Associated space launch

Second generation store-dump military communications satellite

COSMOS 2200 was lifted into orbit during the mission ‘Tsiklon-3 | Strela-3 79 to 82’, on board a Tsiklon-3 space rocket.

The launch took place on July 13, 1992, 5:41 p.m. from 32/1.

For more information about the launch, click the button.

Launch to space Tsiklon-3 | Strela-3 79 to 82
Tsiklon-3 | Strela-3 79 to 82

Agency: N/A

Status: Launch Successful

Launch date: July 13, 1992, 5:41 p.m. UTC

Rocket: Tsiklon-3

Launch pad: 32/1

Location: Plesetsk Cosmodrome, Russian Federation

...

Latest news about this satellite

There are no fresh news available about this satellite. Check back as we update our databases every day.


Newsletter sign-up

Weekly statistics, charts and insights to help you stay on top of the space industry.